Volver al catálogo

ONEWEB-0161

ActivoComunicacionesPO
NORAD 48053·PAYLOAD·🇬🇧 United Kingdom

Lanzado Mar 25, 2021 desde Vostochny Cosmodrome

Loading…

Próximos Pases (próximas 24 horas)

TLE

ActualizadoSource: CelesTrak SupGP

Época: Sep 14, 2026, 23:46 UTC

1 48053C 21025M   26257.99076806  .00002960  00000+0  81161-2 0  2579
2 48053  87.8916 302.3593 0001718 100.3166 299.6766 13.13462705    18

Sigue ONEWEB-0161 en tiempo real con AllMySat

Download on the App Store